JST480 YMML-YSSY

Flight info

Callsign JST480
Flight time 1h 7m
Altitude 35000
Route DOSEL2/34 DOSEL Y59 RIVET
Aircraft A320/M-SDE3FGHIRWY/LB1

Departure

Time 2026-05-04 07:01
Airport Melbourne Airport (YMML)

Arrival

Time 2026-05-04 08:08
Airport Sydney Kingsford Smith International Airport (YSSY)
Time Latitude Longitude Altitude Speed Heading
2026-05-04 06:31 -37.67650 144.84666 375 ft 0 kts 37°
2026-05-04 06:50 -37.67664 144.84653 374 ft 4 kts 36°
2026-05-04 06:51 -37.67687 144.84633 373 ft 4 kts 32°
2026-05-04 06:51 -37.67705 144.84620 372 ft 3 kts 29°
2026-05-04 06:51 -37.67728 144.84603 371 ft 4 kts 27°
2026-05-04 06:51 -37.67748 144.84593 370 ft 4 kts 326°
2026-05-04 06:52 -37.67749 144.84598 370 ft 4 kts 261°
2026-05-04 06:52 -37.67745 144.84632 370 ft 4 kts 261°
2026-05-04 06:52 -37.67742 144.84659 371 ft 3 kts 261°
2026-05-04 06:52 -37.67738 144.84692 371 ft 4 kts 261°
2026-05-04 06:53 -37.67733 144.84725 372 ft 4 kts 261°
2026-05-04 06:53 -37.67732 144.84734 372 ft 0 kts 261°
2026-05-04 06:57 -37.67870 144.84138 362 ft 3 kts 262°
2026-05-04 06:59 -37.67873 144.84116 364 ft 12 kts 262°
2026-05-04 06:59 -37.67888 144.83984 355 ft 10 kts 276°
2026-05-04 06:59 -37.67855 144.83963 358 ft 0 kts 350°
2026-05-04 07:01 -37.64544 144.83370 1431 ft 154 kts 349°
2026-05-04 07:01 -37.63476 144.83194 2171 ft 153 kts 349°
2026-05-04 07:02 -37.62423 144.82989 2903 ft 152 kts 346°
2026-05-04 07:02 -37.61382 144.82777 3635 ft 150 kts 345°
2026-05-04 07:02 -37.60351 144.82570 4300 ft 155 kts 346°
2026-05-04 07:02 -37.59197 144.82553 4696 ft 179 kts 359°
2026-05-04 07:03 -37.57897 144.82997 5074 ft 210 kts 15°
2026-05-04 07:03 -37.56486 144.83835 5444 ft 239 kts 17°
2026-05-04 07:03 -37.54921 144.84777 6037 ft 256 kts 18°
2026-05-04 07:03 -37.53248 144.85793 6513 ft 278 kts 19°
2026-05-04 07:04 -37.51494 144.86863 7227 ft 287 kts 19°
2026-05-04 07:04 -37.49684 144.87974 8030 ft 294 kts 20°
2026-05-04 07:04 -37.47783 144.89134 8559 ft 309 kts 20°
2026-05-04 07:04 -37.45827 144.90328 9300 ft 316 kts 20°
2026-05-04 07:05 -37.43926 144.91797 10078 ft 328 kts 34°
2026-05-04 07:05 -37.42345 144.93948 10783 ft 342 kts 49°
2026-05-04 07:05 -37.40966 144.96412 11507 ft 347 kts 50°
2026-05-04 07:05 -37.39569 144.98908 12207 ft 352 kts 50°
2026-05-04 07:06 -37.36704 145.03994 13629 ft 360 kts 50°
2026-05-04 07:06 -37.35244 145.06573 14263 ft 364 kts 50°
2026-05-04 07:06 -37.33768 145.09174 14902 ft 367 kts 50°
2026-05-04 07:07 -37.32275 145.11806 15541 ft 370 kts 50°
2026-05-04 07:08 -37.21534 145.30727 19803 ft 390 kts 49°
2026-05-04 07:09 -37.19948 145.33509 20376 ft 393 kts 49°
2026-05-04 07:09 -37.18350 145.36301 20936 ft 395 kts 49°
2026-05-04 07:09 -37.16744 145.39108 21436 ft 398 kts 49°
2026-05-04 07:09 -37.15128 145.41933 21961 ft 400 kts 48°
2026-05-04 07:10 -37.13496 145.44783 22442 ft 403 kts 47°
2026-05-04 07:10 -37.11855 145.47643 22967 ft 406 kts 47°
2026-05-04 07:12 -37.00095 145.68086 25944 ft 422 kts 45°
2026-05-04 07:12 -36.98371 145.71066 26328 ft 425 kts 45°
2026-05-04 07:12 -36.96651 145.74038 26725 ft 428 kts 45°
2026-05-04 07:12 -36.94907 145.77055 27107 ft 430 kts 45°
2026-05-04 07:13 -36.93149 145.80099 27486 ft 432 kts 44°
2026-05-04 07:13 -36.91388 145.83147 27912 ft 434 kts 44°
2026-05-04 07:13 -36.89615 145.86207 28315 ft 436 kts 44°
2026-05-04 07:14 -36.82382 145.98646 29798 ft 448 kts 44°
2026-05-04 07:14 -36.80538 146.01809 30136 ft 451 kts 44°
2026-05-04 07:15 -36.78685 146.04982 30413 ft 454 kts 45°
2026-05-04 07:15 -36.76814 146.08184 30740 ft 456 kts 45°
2026-05-04 07:15 -36.74943 146.11394 31006 ft 459 kts 45°
2026-05-04 07:15 -36.73084 146.14581 31309 ft 462 kts 45°
2026-05-04 07:16 -36.71171 146.17857 31733 ft 461 kts 45°
2026-05-04 07:16 -36.69283 146.21083 32157 ft 461 kts 45°
2026-05-04 07:16 -36.67389 146.24308 32578 ft 461 kts 44°
2026-05-04 07:16 -36.65522 146.27483 33000 ft 461 kts 44°
2026-05-04 07:17 -36.63626 146.30703 33435 ft 460 kts 44°
2026-05-04 07:17 -36.61732 146.33918 33840 ft 460 kts 44°
2026-05-04 07:17 -36.59842 146.37129 34217 ft 460 kts 44°
2026-05-04 07:17 -36.57952 146.40344 34532 ft 461 kts 45°
2026-05-04 07:18 -36.56058 146.43564 34833 ft 462 kts 45°
2026-05-04 07:18 -36.54151 146.46795 34975 ft 463 kts 45°
2026-05-04 07:18 -36.50350 146.53223 35010 ft 460 kts 45°
2026-05-04 07:19 -36.46559 146.59629 35011 ft 461 kts 44°
2026-05-04 07:19 -36.42775 146.65996 35016 ft 461 kts 44°
2026-05-04 07:20 -36.38965 146.72401 35015 ft 461 kts 44°
2026-05-04 07:20 -36.35164 146.78790 35000 ft 461 kts 44°
2026-05-04 07:22 -36.20526 147.03254 35018 ft 461 kts 44°
2026-05-04 07:23 -36.16702 147.09616 35021 ft 461 kts 44°
2026-05-04 07:23 -36.12877 147.15968 35020 ft 460 kts 43°
2026-05-04 07:24 -36.09049 147.22322 35039 ft 460 kts 43°
2026-05-04 07:24 -36.05218 147.28655 35021 ft 459 kts 43°
2026-05-04 07:26 -35.89883 147.53907 35055 ft 459 kts 43°
2026-05-04 07:27 -35.86063 147.60157 35065 ft 459 kts 43°
2026-05-04 07:27 -35.82218 147.66436 35053 ft 459 kts 43°
2026-05-04 07:28 -35.78374 147.72730 35043 ft 459 kts 42°
2026-05-04 07:28 -35.74527 147.79005 35053 ft 459 kts 42°
2026-05-04 07:29 -35.70674 147.85276 35062 ft 459 kts 42°
2026-05-04 07:29 -35.66817 147.91534 35064 ft 459 kts 42°
2026-05-04 07:30 -35.62960 147.97789 35044 ft 459 kts 42°
2026-05-04 07:30 -35.59124 148.04014 35050 ft 460 kts 42°
2026-05-04 07:31 -35.55257 148.10267 35060 ft 460 kts 42°
2026-05-04 07:33 -35.39716 148.35236 35052 ft 461 kts 42°
2026-05-04 07:33 -35.35809 148.41493 35034 ft 462 kts 42°
2026-05-04 07:34 -35.31907 148.47741 35047 ft 462 kts 41°
2026-05-04 07:34 -35.27991 148.53989 35046 ft 463 kts 42°
2026-05-04 07:35 -35.24090 148.60202 35063 ft 463 kts 42°
2026-05-04 07:35 -35.20167 148.66439 35042 ft 463 kts 42°
2026-05-04 07:36 -35.16225 148.72691 35048 ft 464 kts 42°
2026-05-04 07:38 -35.00454 148.97607 35045 ft 464 kts 42°
2026-05-04 07:38 -34.96500 149.03831 35055 ft 464 kts 42°
2026-05-04 07:39 -34.92545 149.10033 35066 ft 463 kts 42°
2026-05-04 07:39 -34.88612 149.16191 35062 ft 463 kts 42°
2026-05-04 07:40 -34.84656 149.22379 35069 ft 463 kts 42°
2026-05-04 07:40 -34.82673 149.25477 34611 ft 466 kts 42°
2026-05-04 07:40 -34.80675 149.28592 34001 ft 467 kts 42°
2026-05-04 07:41 -34.78681 149.31704 33462 ft 463 kts 43°
2026-05-04 07:41 -34.76704 149.34789 32940 ft 459 kts 43°
2026-05-04 07:41 -34.74753 149.37849 32444 ft 457 kts 45°
2026-05-04 07:41 -34.73054 149.41151 31941 ft 464 kts 53°
2026-05-04 07:42 -34.71553 149.44611 31434 ft 461 kts 53°
2026-05-04 07:42 -34.70063 149.48051 30932 ft 457 kts 53°
2026-05-04 07:42 -34.68583 149.51456 30426 ft 454 kts 53°
2026-05-04 07:42 -34.67126 149.54811 29889 ft 443 kts 53°
2026-05-04 07:43 -34.65738 149.58020 29428 ft 426 kts 53°
2026-05-04 07:43 -34.64378 149.61152 28958 ft 416 kts 53°
2026-05-04 07:43 -34.63026 149.64236 28538 ft 412 kts 52°
2026-05-04 07:43 -34.61680 149.67291 28088 ft 409 kts 53°
2026-05-04 07:44 -34.60340 149.70323 27692 ft 405 kts 53°
2026-05-04 07:44 -34.59009 149.73333 27272 ft 403 kts 53°
2026-05-04 07:44 -34.57690 149.76320 26849 ft 400 kts 53°
2026-05-04 07:44 -34.56385 149.79287 26457 ft 397 kts 53°
2026-05-04 07:45 -34.55091 149.82234 26054 ft 395 kts 53°
2026-05-04 07:45 -34.53800 149.85169 25627 ft 393 kts 52°
2026-05-04 07:45 -34.52513 149.88087 25205 ft 391 kts 52°
2026-05-04 07:45 -34.51235 149.90981 24780 ft 389 kts 53°
2026-05-04 07:46 -34.49959 149.93867 24360 ft 388 kts 53°
2026-05-04 07:46 -34.48685 149.96739 23921 ft 387 kts 53°
2026-05-04 07:46 -34.47405 149.99619 23441 ft 387 kts 53°
2026-05-04 07:46 -34.46153 150.02449 22974 ft 385 kts 53°
2026-05-04 07:47 -34.44896 150.05297 22524 ft 382 kts 53°
2026-05-04 07:47 -34.43647 150.08129 22053 ft 379 kts 53°
2026-05-04 07:47 -34.42407 150.10934 21598 ft 376 kts 53°
2026-05-04 07:49 -34.33855 150.30128 18370 ft 365 kts 55°
2026-05-04 07:49 -34.32646 150.32835 17865 ft 364 kts 55°
2026-05-04 07:49 -34.31446 150.35518 17409 ft 361 kts 55°
2026-05-04 07:50 -34.30253 150.38179 16951 ft 359 kts 55°
2026-05-04 07:50 -34.29067 150.40825 16495 ft 356 kts 55°
2026-05-04 07:50 -34.27885 150.43455 16029 ft 354 kts 55°
2026-05-04 07:50 -34.26717 150.46060 15577 ft 352 kts 55°
2026-05-04 07:51 -34.25555 150.48660 15122 ft 350 kts 55°
2026-05-04 07:51 -34.24401 150.51246 14670 ft 348 kts 55°
2026-05-04 07:51 -34.23257 150.53810 14221 ft 347 kts 55°
2026-05-04 07:51 -34.22111 150.56371 13765 ft 345 kts 55°
2026-05-04 07:52 -34.20984 150.58886 13288 ft 333 kts 55°
2026-05-04 07:52 -34.19912 150.61286 12859 ft 319 kts 55°
2026-05-04 07:52 -34.18881 150.63603 12461 ft 307 kts 55°
2026-05-04 07:52 -34.17866 150.65869 12063 ft 307 kts 54°
2026-05-04 07:53 -34.16845 150.68133 11662 ft 306 kts 54°
2026-05-04 07:54 -34.09842 150.83647 8969 ft 280 kts 54°
2026-05-04 07:55 -34.08951 150.85645 8805 ft 263 kts 54°
2026-05-04 07:55 -34.08094 150.87561 8441 ft 257 kts 54°
2026-05-04 07:55 -34.07245 150.89438 8108 ft 255 kts 53°
2026-05-04 07:55 -34.06391 150.91314 7840 ft 253 kts 53°
2026-05-04 07:56 -34.05564 150.93143 7573 ft 244 kts 54°
2026-05-04 07:56 -34.04764 150.94924 7350 ft 239 kts 54°
2026-05-04 07:56 -34.03988 150.96652 7057 ft 231 kts 56°
2026-05-04 07:56 -34.03483 150.98516 6876 ft 239 kts 76°
2026-05-04 07:57 -34.03498 151.00544 6640 ft 246 kts 97°
2026-05-04 07:57 -34.04083 151.02496 6382 ft 251 kts 118°
2026-05-04 07:57 -34.05167 151.04137 6115 ft 251 kts 134°
2026-05-04 07:57 -34.06383 151.05652 5844 ft 251 kts 136°
2026-05-04 07:58 -34.07731 151.06974 5579 ft 249 kts 149°
2026-05-04 07:58 -34.09261 151.07919 5327 ft 246 kts 163°
2026-05-04 07:58 -34.10892 151.08472 5098 ft 240 kts 172°
2026-05-04 07:58 -34.12503 151.08888 4862 ft 240 kts 172°
2026-05-04 07:59 -34.14126 151.09309 4622 ft 237 kts 171°
2026-05-04 07:59 -34.15733 151.09725 4391 ft 236 kts 171°
2026-05-04 07:59 -34.17337 151.10141 4158 ft 236 kts 171°
2026-05-04 07:59 -34.18935 151.10622 3930 ft 237 kts 163°
2026-05-04 08:00 -34.20398 151.11527 3706 ft 238 kts 145°
2026-05-04 08:00 -34.21508 151.12953 3486 ft 232 kts 112°
2026-05-04 08:00 -34.21862 151.14806 3268 ft 225 kts 87°
2026-05-04 08:02 -34.18119 151.23257 3002 ft 174 kts
2026-05-04 08:02 -34.16919 151.23439 3000 ft 173 kts 356°
2026-05-04 08:02 -34.15732 151.23310 3004 ft 172 kts 345°
2026-05-04 08:03 -34.14585 151.22901 3002 ft 173 kts 341°
2026-05-04 08:03 -34.13476 151.22560 3012 ft 155 kts 343°
2026-05-04 08:03 -34.12470 151.22284 2996 ft 143 kts 345°
2026-05-04 08:03 -34.11517 151.22027 2997 ft 139 kts 346°
2026-05-04 08:04 -34.10574 151.21774 3001 ft 138 kts 346°
2026-05-04 08:04 -34.09638 151.21520 2976 ft 137 kts 345°
2026-05-04 08:04 -34.08709 151.21269 2656 ft 135 kts 346°
2026-05-04 08:04 -34.07792 151.21026 2386 ft 134 kts 348°
2026-05-04 08:05 -34.06881 151.20786 2143 ft 135 kts 347°
2026-05-04 08:05 -34.05972 151.20548 1946 ft 133 kts 348°
2026-05-04 08:05 -34.05067 151.20312 1766 ft 133 kts 349°
2026-05-04 08:05 -34.04161 151.20076 1585 ft 133 kts 349°
2026-05-04 08:06 -34.03259 151.19841 1411 ft 132 kts 350°
2026-05-04 08:06 -34.02355 151.19606 1233 ft 133 kts 351°
2026-05-04 08:06 -34.01439 151.19368 1054 ft 134 kts 349°
2026-05-04 08:06 -34.00536 151.19133 873 ft 135 kts 352°
2026-05-04 08:08 -33.94890 151.17666 29 ft 45 kts 348°
2026-05-04 08:08 -33.94603 151.17648 29 ft 23 kts 12°
2026-05-04 08:10 -33.94204 151.17694 29 ft 20 kts 345°
2026-05-04 08:11 -33.94054 151.17653 28 ft 24 kts 347°
2026-05-04 08:11 -33.93724 151.17564 29 ft 13 kts 347°
2026-05-04 08:11 -33.93646 151.17603 30 ft 14 kts 60°
2026-05-04 08:12 -33.93650 151.17725 30 ft 16 kts 101°
2026-05-04 08:12 -33.93631 151.17815 30 ft 12 kts 16°
2026-05-04 08:12 -33.93570 151.17828 30 ft 14 kts
2026-05-04 08:12 -33.93528 151.17785 30 ft 1 kts 280°
2026-05-04 08:13 -33.93526 151.17774 30 ft 3 kts 281°
2026-05-04 08:13 -33.93524 151.17765 30 ft 0 kts 281°